| time (UTC) | temp F | wind direction | speed MPH | gust MPH | rain 1hr in | rain 24hr in | rain mn in | humidity % | barometer mb |
| 20260508100045 | 46 | 229 | 2.0 | 7.0 | 0.00 | 0.00 | 0.00 | 30 | 866.8 |
| 20260508090045 | 46 | 221 | 4.0 | 12.0 | 0.00 | 0.00 | 0.00 | 29 | 866.9 |
| 20260508080055 | 46 | 271 | 5.0 | 12.0 | 0.00 | 0.00 | 0.00 | 24 | 867.1 |
| 20260508070055 | 46 | 260 | 0.0 | 2.0 | 0.00 | 0.00 | 0.00 | 44 | 867.2 |
| 20260508060300 | 47 | 296 | 2.0 | 7.0 | 0.00 | 0.00 | 0.00 | 44 | 867.2 |
| 20260508050053 | 47 | 257 | 10.0 | 17.0 | 0.00 | 0.00 | 0.00 | 44 | 867.3 |
| 20260508030043 | 48 | 299 | 5.0 | 10.0 | 0.00 | 0.00 | 0.00 | 52 | 866.8 |
| 20260508020111 | 51 | 272 | 3.0 | 8.0 | 0.00 | 0.00 | 0.00 | 45 | 866.8 |
| 20260508010112 | 54 | 310 | 1.0 | 9.0 | 0.00 | 0.00 | 0.00 | 50 | 866.7 |
| 20260508000116 | 56 | 274 | 2.0 | 10.0 | 0.00 | 0.00 | 0.00 | 35 | 866.9 |
| 20260507230059 | 55 | 44 | 0.0 | 5.0 | 0.00 | 0.00 | 0.00 | 44 | 866.8 |
| 20260507220101 | 58 | 9 | 2.0 | 8.0 | 0.00 | 0.00 | 0.00 | 40 | 867.2 |
| 20260507210130 | 53 | 58 | 4.0 | 12.0 | 0.00 | 0.00 | 0.00 | 44 | 867.4 |
| 20260507200114 | 51 | 203 | 5.0 | 14.0 | 0.00 | 0.00 | 0.00 | 47 | 867.6 |
| 20260507190109 | 51 | 156 | 2.0 | 7.0 | 0.00 | 0.00 | 0.00 | 54 | 867.4 |
| 20260507180053 | 48 | 110 | 4.0 | 11.0 | 0.00 | 0.00 | 0.00 | 61 | 867.1 |
| 20260507170054 | 48 | 229 | 2.0 | 5.0 | 0.00 | 0.00 | 0.00 | 59 | 866.9 |
| 20260507160101 | 47 | 352 | 1.0 | 3.0 | 0.00 | 0.00 | 0.00 | 54 | 867.0 |
| 20260507150049 | 45 | 71 | 1.0 | 3.0 | 0.00 | 0.00 | 0.00 | 56 | 866.8 |
| 20260507140111 | 43 | 270 | 5.0 | 15.0 | 0.00 | 0.00 | 0.00 | 45 | 866.5 |
| 20260507130112 | 44 | 260 | 13.0 | 25.0 | 0.00 | 0.00 | 0.00 | 42 | 866.3 |
| 20260507120029 | 44 | 252 | 9.0 | 14.0 | 0.00 | 0.00 | 0.00 | 39 | 866.5 |
| 20260507110029 | 45 | 253 | 7.0 | 18.0 | 0.00 | 0.00 | 0.00 | 39 | 866.5 |